Home   Weather   Clovis   Past weeks

Flag for USA Past Weather in Clovis, New Mexico, USA — Yesterday and Last 2 Weeks

Now
37 °F

Fog.


Feels Like: 29 °F
Forecast: 35 / 53 °F
Wind: 13 mph from West

Location: Cannon Air Force Base / Clovis

Current Time: Jan 18, 2017 at 7:15:03 am

Latest Report: Jan 18, 2017 at 6:28 am


Visibility: 3 mi

Pressure: 30.07 "Hg (25.60 "Hg at 1300m altitude)

Humidity: 100%

Dew Point: 37 °F

Location of ClovisLocation

Past Weather in Clovis — Graph

°F

Clovis Temperature Yesterday

Maximum temperature yesterday: 53 °F (at 2:58 pm)
Minimum temperature yesterday: 28 °F (at 6:38 am)
Average temperature yesterday: 40 °F

High & Low Weather Summary for the Past Weeks

 TemperatureHumidityPressure
High71 °F (Jan 11, 3:58 pm)100% (Jan 13, 1:58 am)30.68 "Hg (Jan 13, 1:58 am)
Low3 °F (Jan 7, 5:58 am)9% (Jan 11, 11:58 am)29.66 "Hg (Jan 11, 1:58 pm)
Average35 °F77%30.11 "Hg
* Reported Jan 3 6:58 am — Jan 18 6:18 am, Clovis, Weather by CustomWeather, © 2017

Note: Actual official high and low records may vary slightly from our data, if they occured in-between our weather recording intervals... More about our weather records

Advertising

Clovis Weather History for the Previous 24 Hours

Scroll right to see more
 ConditionsComfort  
Time TempWeatherWind HumidityBarometerVisibility
6:18 am
Wed, Jan 18
37 °FFog.10 mph100%30.07 "Hg2 mi
5:58 am38 °FFog.12 mph100%30.06 "Hg1 mi
5:38 am37 °FFog.10 mph100%30.07 "Hg4 mi
5:13 am37 °FLow clouds.8 mph100%30.07 "Hg10 mi
5:03 am37 °FLow clouds.9 mph100%30.07 "Hg10 mi
4:42 am37 °FPassing clouds.10 mph100%30.07 "Hg10 mi
4:17 am37 °FPassing clouds.9 mph100%30.07 "Hg10 mi
3:58 am37 °FClear.8 mph100%30.04 "Hg10 mi
3:38 am37 °FPassing clouds.7 mph100%30.08 "Hg10 mi
3:08 am39 °FPartly cloudy.8 mph100%30.09 "Hg10 mi
2:58 am39 °FPartly cloudy.9 mph100%30.06 "Hg10 mi
2:43 am39 °FMostly cloudy.8 mph100%30.10 "Hg10 mi
2:18 am39 °FMostly cloudy.9 mph100%30.12 "Hg10 mi
1:58 am40 °FMostly cloudy.8 mph100%30.08 "Hg10 mi
1:08 am39 °FMostly cloudy.3 mph100%30.11 "Hg10 mi
12:58 am40 °FMostly cloudy.No wind100%30.08 "Hg10 mi
12:38 am39 °FOvercast.6 mph100%30.12 "Hg10 mi
11:58 pm
Tue, Jan 17
40 °FOvercast.9 mph100%30.11 "Hg10 mi
11:43 pm41 °FDrizzle. Mostly cloudy.8 mph100%30.14 "Hg10 mi
11:08 pm43 °FMostly cloudy.7 mph100%30.15 "Hg10 mi
10:58 pm42 °FPassing clouds.7 mph100%30.13 "Hg10 mi
10:33 pm43 °FLight rain. Mostly cloudy.No wind100%30.14 "Hg9 mi
9:58 pm42 °FRain. Fog.6 mph100%30.16 "Hg6 mi
9:38 pm43 °FRain. Overcast.6 mph100%30.16 "Hg8 mi
9:17 pm43 °FLight rain. Mostly cloudy.7 mph100%30.16 "Hg10 mi
8:58 pm42 °FLight rain. Mostly cloudy.8 mph100%30.16 "Hg10 mi
8:38 pm43 °FLight rain. Mostly cloudy.9 mph100%30.15 "Hg10 mi
8:23 pm43 °FLight rain. Mostly cloudy.6 mph100%30.15 "Hg10 mi
7:58 pm43 °FLight rain. Mostly cloudy.10 mph100%30.15 "Hg10 mi
7:38 pm43 °FMostly cloudy.7 mph100%30.14 "Hg10 mi
7:28 pm43 °FLight rain. Overcast.7 mph100%30.13 "Hg10 mi
6:58 pm43 °FMostly cloudy.7 mph100%30.14 "Hg10 mi
6:38 pm43 °FLight rain. Mostly cloudy.6 mph100%30.12 "Hg10 mi
6:13 pm45 °FLight rain. Overcast.7 mph100%30.12 "Hg10 mi
5:58 pm46 °FLight rain. Overcast.10 mph100%30.12 "Hg10 mi
4:58 pm49 °FOvercast.7 mph73%30.07 "Hg10 mi
3:58 pm51 °FOvercast.9 mph64%30.06 "Hg10 mi
3:33 pm50 °FPartly sunny.9 mph62%30.07 "Hg10 mi
3:19 pm52 °FScattered clouds.5 mph58%30.06 "Hg10 mi
2:58 pm53 °FSunny.7 mph57%30.03 "Hg10 mi
1:58 pm52 °FSunny.8 mph61%30.03 "Hg10 mi
12:58 pm49 °FSunny.9 mph72%30.07 "Hg10 mi
11:58 am47 °FSunny.5 mph80%30.13 "Hg10 mi
10:58 am43 °FSunny.3 mph94%30.19 "Hg10 mi
9:58 am39 °FSunny.7 mph100%30.20 "Hg10 mi
8:58 am34 °FScattered clouds.9 mph100%30.22 "Hg10 mi
7:58 am31 °FOvercast.No wind100%30.22 "Hg10 mi
7:43 am32 °FOvercast.5 mph100%30.18 "Hg10 mi
7:38 am32 °FOvercast.3 mph100%30.18 "Hg10 mi
Weather by CustomWeather, © 2017

See weather overviewHow to use our weather pages